Weather History for KORH - July, 2013

Change the Weather History Date:

Friday, July 19, 2013

  Actual Average Record
Temperature  
Mean Temperature 84 °F 71 °F  
Max Temperature 93 °F 79 °F 95 °F (1991)
Min Temperature 74 °F 62 °F 52 °F (1944)
Degree Days  
Heating Degree Days 0 0  
Month to date heating degree days 0 9  
Since 1 June heating degree days 67 92  
Since 1 July heating degree days 0 9  
Cooling Degree Days 19 6  
Month to date cooling degree days 223 105  
Year to date cooling degree days 350 211  
Since 1 June cooling degree days 326 189  
Growing Degree Days 32 (Base 50)    
Moisture  
Dew Point 72 °F    
Average Humidity 70    
Maximum Humidity 93    
Minimum Humidity 47    
Precipitation  
Precipitation 0.00 in 0.15 in 1.85 in (1972)
Month to date precipitation 0.77 2.52  
Year to date precipitation 27.64 25.94  
Sea Level Pressure  
Sea Level Pressure 29.87 in    
Wind  
Wind Speed 13 mph (WSW)    
Max Wind Speed 22 mph    
Max Gust Speed 31 mph    
Visibility 9 miles    
Events      
T = Trace of Precipitation, MM = Missing Value Source: NWS Daily Summary

Daily Weather History Graph

Daily Weather History Graph

Search for Another Location

Airport or City:

Trip Planner

Search our weather history database for the weather conditions in past years. The results will help you decide how hot, cold, wet, or windy it might be!

Date:

Astronomy

Jul. 19, 2013 Rise Set
Actual Time 5:27 AM EDT 8:19 PM EDT
Civil Twilight 4:54 AM EDT 8:52 PM EDT
Nautical Twilight 4:12 AM EDT 9:33 PM EDT
Astronomical Twilight 3:24 AM EDT 10:22 PM EDT
Moon 5:18 PM EDT (7/19) 2:06 AM EDT (7/19)
Length of Visible Light 15h 57m
Length of Day
14h 51m
Waxing Gibbous, 86% of the Moon is Illuminated
Jul 19
Waxing Gibbous
Jul 22
Full
Jul 29
Last Quarter
Aug 6
New
Aug 14
First Quarter

Hourly Weather History & Observations

Time (EDT) Temp. Heat Index Dew Point Humidity Pressure Visibility Wind Dir Wind Speed Gust Speed Precip Events Conditions
12:54 AM 75.9 °F - 71.1 °F 85% 29.97 in 10.0 mi South 5.8 mph - N/A   Clear
1:54 AM 73.9 °F - 71.1 °F 91% 29.96 in 10.0 mi WSW 5.8 mph - N/A   Clear
2:54 AM 75.9 °F - 70.0 °F 82% 29.95 in 10.0 mi West 8.1 mph - N/A   Clear
3:54 AM 75.0 °F - 70.0 °F 84% 29.95 in 10.0 mi West 8.1 mph - N/A   Clear
4:54 AM 75.0 °F - 71.1 °F 87% 29.93 in 10.0 mi West 10.4 mph - N/A   Partly Cloudy
5:54 AM 75.0 °F - 71.1 °F 87% 29.93 in 10.0 mi WSW 9.2 mph - N/A   Clear
6:54 AM 75.9 °F - 71.1 °F 85% 29.92 in 10.0 mi West 9.2 mph - N/A   Clear
7:54 AM 80.1 °F 83.6 °F 71.1 °F 74% 29.92 in 10.0 mi West 11.5 mph - N/A   Clear
8:54 AM 82.0 °F 86.3 °F 71.1 °F 69% 29.92 in 10.0 mi West 10.4 mph - N/A   Clear
9:54 AM 86.0 °F 91.5 °F 71.1 °F 61% 29.92 in 10.0 mi WSW 16.1 mph - N/A   Clear
10:54 AM 87.1 °F 92.8 °F 71.1 °F 59% 29.91 in 10.0 mi WSW 13.8 mph 23.0 mph N/A   Clear
11:54 AM 89.1 °F 93.7 °F 69.1 °F 52% 29.89 in 10.0 mi WSW 18.4 mph 27.6 mph N/A   Clear
12:54 PM 90.0 °F 95.4 °F 70.0 °F 52% 29.87 in 10.0 mi WSW 16.1 mph 26.5 mph N/A   Clear
1:54 PM 91.9 °F 95.9 °F 68.0 °F 45% 29.85 in 10.0 mi WSW 19.6 mph 27.6 mph N/A   Clear
2:54 PM 91.9 °F 96.9 °F 69.1 °F 47% 29.82 in 10.0 mi WSW 19.6 mph 27.6 mph N/A   Clear
3:54 PM 91.9 °F 97.4 °F 70.0 °F 48% 29.80 in 10.0 mi SW 19.6 mph 29.9 mph N/A   Partly Cloudy
4:54 PM 90.0 °F 96.4 °F 71.1 °F 54% 29.78 in 10.0 mi SW 16.1 mph - N/A   Clear
5:54 PM 88.0 °F 96.5 °F 73.9 °F 63% 29.77 in 9.0 mi SSW 12.7 mph - N/A   Clear
6:54 PM 86.0 °F 95.1 °F 75.0 °F 70% 29.77 in 7.0 mi SW 16.1 mph - N/A   Clear
7:54 PM 84.9 °F 94.1 °F 75.9 °F 74% 29.78 in 6.0 mi SW 12.7 mph - N/A   Haze
8:54 PM 82.9 °F 90.8 °F 75.9 °F 79% 29.79 in 7.0 mi SW 10.4 mph - N/A   Clear
9:54 PM 82.0 °F 88.6 °F 75.0 °F 79% 29.79 in 7.0 mi SW 13.8 mph - N/A   Clear
10:54 PM 82.0 °F 87.9 °F 73.9 °F 76% 29.80 in 8.0 mi WSW 15.0 mph 23.0 mph N/A   Clear
11:54 PM 81.0 °F 85.8 °F 73.0 °F 77% 29.78 in 8.0 mi WSW 13.8 mph - N/A   Clear